This is the latest recevied weather packets stored in our database for station/object N0NAI-13. If no packets are shown the sender has not sent any weather packets the latest 10 day(s).
| Time | Temp. | Humidity | Pressure | Rain* | Wind** | Luminosity | Snow |
|---|---|---|---|---|---|---|---|
| 1777851327 | 23.33° C | 27% | 1007.3 hPa | 0 mm | - | - | - |
| 1777850730 | 24.44° C | 28% | 1007.3 hPa | 0 mm | - | - | - |
| 1777850115 | 24.44° C | 28% | 1007.2 hPa | 0 mm | - | - | - |
| 1777849518 | 24.44° C | 27% | 1007.2 hPa | 0 mm | - | - | - |
| 1777848921 | 24.44° C | 27% | 1007.2 hPa | 0 mm | - | - | - |
| 1777848324 | 25° C | 27% | 1007.1 hPa | 0 mm | - | - | - |
| 1777847727 | 25° C | 27% | 1007 hPa | 0 mm | - | - | - |
| 1777847130 | 25° C | 26% | 1007 hPa | 0 mm | - | - | - |
| 1777846532 | 25.56° C | 27% | 1007.1 hPa | 0 mm | - | - | - |
| 1777845917 | 25° C | 28% | 1007 hPa | 0 mm | - | - | - |
| 1777845320 | 25.56° C | 30% | 1007.1 hPa | 0 mm | - | - | - |
| 1777844724 | 24.44° C | 30% | 1007.1 hPa | 0 mm | - | - | - |
| 1777844126 | 25° C | 31% | 1007.1 hPa | 0 mm | - | - | - |
| 1777843529 | 24.44° C | 32% | 1007.2 hPa | 0 mm | - | - | - |
| 1777842926 | 24.44° C | 31% | 1007.3 hPa | 0 mm | - | - | - |
| 1777842317 | 24.44° C | 29% | 1007.4 hPa | 0 mm | - | - | - |
| 1777841720 | 25° C | 28% | 1007.4 hPa | 0 mm | - | - | - |
| 1777841117 | 25° C | 30% | 1007.4 hPa | 0 mm | - | - | - |
| 1777840526 | 25° C | 31% | 1007.5 hPa | 0 mm | - | - | - |
| 1777839929 | 24.44° C | 32% | 1007.6 hPa | 0 mm | - | - | - |
| 1777839332 | 24.44° C | 31% | 1007.6 hPa | 0 mm | - | - | - |
| 1777838717 | 24.44° C | 30% | 1007.8 hPa | 0 mm | - | - | - |
| 1777838120 | 24.44° C | 29% | 1007.8 hPa | 0 mm | - | - | - |
| 1777837523 | 24.44° C | 35% | 1007.8 hPa | 0 mm | - | - | - |
| 1777836926 | 24.44° C | 33% | 1007.8 hPa | 0 mm | - | - | - |
* Rain latest hour (hover to see other rain measurements)
** Current wind speed in m/s (hover to see current wind gust speed)